Time,TemperatureF,DewpointF,PressureIn,WindDirection,WindDirectionDegrees,WindSpeedMPH,WindSpeedGustMPH,Humidity,HourlyPrecipIn,Conditions,Clouds,dailyrainin,SoftwareType,DateUTC
2013-08-11 00:01:00,75.0,71.0,30.06,NNW,333,0.0,-999.0,86,-99.99,,,-99.99,,2013-08-11 04:01:00,
2013-08-11 00:12:00,75.0,71.0,30.06,NNW,333,0.0,-999.0,86,-99.99,,,-99.99,,2013-08-11 04:12:00,
2013-08-11 00:22:00,75.0,71.0,30.06,NNW,333,0.0,-999.0,87,-99.99,,,-99.99,,2013-08-11 04:22:00,
2013-08-11 00:32:00,74.0,70.0,30.06,NNW,334,0.0,-999.0,87,-99.99,,,-99.99,,2013-08-11 04:32:00,
2013-08-11 00:43:00,74.0,70.0,30.06,NNW,334,0.0,-999.0,87,-99.99,,,-99.99,,2013-08-11 04:43:00,
2013-08-11 00:53:00,74.0,70.0,30.06,NNW,334,0.0,-999.0,87,-99.99,,,-99.99,,2013-08-11 04:53:00,
2013-08-11 01:02:00,74.0,70.0,30.06,NNW,333,0.0,-999.0,88,-99.99,,,-99.99,,2013-08-11 05:02:00,
2013-08-11 01:19:00,74.0,70.0,30.06,NNW,333,0.0,-999.0,88,-99.99,,,-99.99,,2013-08-11 05:19:00,
2013-08-11 01:25:00,74.0,71.0,30.07,NNW,331,0.0,-999.0,89,-99.99,,,-99.99,,2013-08-11 05:25:00,
2013-08-11 01:36:00,74.0,71.0,30.06,NNW,330,0.0,-999.0,89,-99.99,,,-99.99,,2013-08-11 05:36:00,
2013-08-11 01:57:00,74.0,71.0,30.06,WNW,300,0.0,-999.0,89,-99.99,,,-99.99,,2013-08-11 05:57:00,
2013-08-11 02:17:00,73.0,70.0,30.06,WNW,283,0.0,-999.0,89,-99.99,,,-99.99,,2013-08-11 06:17:00,
2013-08-11 02:26:00,73.0,70.0,30.06,WNW,284,0.0,-999.0,90,-99.99,,,-99.99,,2013-08-11 06:26:00,
2013-08-11 02:36:00,72.0,69.0,30.06,WNW,284,0.0,-999.0,90,-99.99,,,-99.99,,2013-08-11 06:36:00,
2013-08-11 02:48:00,72.0,69.0,30.06,WNW,284,0.0,-999.0,90,-99.99,,,-99.99,,2013-08-11 06:48:00,
2013-08-11 02:57:00,72.0,69.0,30.06,WNW,284,0.0,-999.0,90,-99.99,,,-99.99,,2013-08-11 06:57:00,
2013-08-11 03:06:00,72.0,69.0,30.06,WNW,284,0.0,-999.0,91,-99.99,,,-99.99,,2013-08-11 07:06:00,
2013-08-11 03:15:00,72.0,69.0,30.06,WNW,284,0.0,-999.0,91,-99.99,,,-99.99,,2013-08-11 07:15:00,
2013-08-11 03:24:00,72.0,69.0,30.06,WNW,284,0.0,-999.0,91,-99.99,,,-99.99,,2013-08-11 07:24:00,
2013-08-11 03:56:00,72.0,69.0,30.05,WNW,284,0.0,-999.0,91,-99.99,,,-99.99,,2013-08-11 07:56:00,
2013-08-11 04:09:00,71.0,69.0,30.05,WNW,284,0.0,-999.0,92,-99.99,,,-99.99,,2013-08-11 08:09:00,
2013-08-11 04:18:00,71.0,69.0,30.05,WNW,284,0.0,-999.0,92,-99.99,,,-99.99,,2013-08-11 08:18:00,
2013-08-11 04:26:00,71.0,69.0,30.05,WNW,284,0.0,-999.0,92,-99.99,,,-99.99,,2013-08-11 08:26:00,
2013-08-11 04:47:00,71.0,69.0,30.06,WNW,284,0.0,-999.0,92,-99.99,,,-99.99,,2013-08-11 08:47:00,
2013-08-11 04:59:00,71.0,69.0,30.06,WNW,284,0.0,-999.0,92,-99.99,,,-99.99,,2013-08-11 08:59:00,
2013-08-11 05:08:00,71.0,69.0,30.06,WNW,284,0.0,-999.0,93,-99.99,,,-99.99,,2013-08-11 09:08:00,
2013-08-11 05:29:00,71.0,69.0,30.06,WNW,284,0.0,-999.0,93,-99.99,,,-99.99,,2013-08-11 09:29:00,
2013-08-11 05:35:00,71.0,69.0,30.06,WNW,284,0.0,-999.0,93,-99.99,,,-99.99,,2013-08-11 09:35:00,
2013-08-11 05:43:00,71.0,69.0,30.06,WNW,284,0.0,-999.0,93,-99.99,,,-99.99,,2013-08-11 09:43:00,
2013-08-11 06:01:00,71.0,69.0,30.06,WNW,284,0.0,-999.0,93,-99.99,,,-99.99,,2013-08-11 10:01:00,
2013-08-11 06:15:00,71.0,69.0,30.06,WNW,282,0.0,-999.0,94,-99.99,,,-99.99,,2013-08-11 10:15:00,
2013-08-11 06:29:00,71.0,69.0,30.07,WNW,282,0.0,-999.0,94,-99.99,,,-99.99,,2013-08-11 10:29:00,
2013-08-11 06:35:00,71.0,69.0,30.07,WNW,282,0.0,-999.0,93,-99.99,,,-99.99,,2013-08-11 10:35:00,
2013-08-11 06:46:00,71.0,69.0,30.07,WNW,282,0.0,-999.0,93,-99.99,,,-99.99,,2013-08-11 10:46:00,
2013-08-11 06:57:00,71.0,69.0,30.07,WNW,282,0.0,-999.0,94,-99.99,,,-99.99,,2013-08-11 10:57:00,
2013-08-11 07:06:00,71.0,69.0,30.08,WNW,282,0.0,-999.0,94,-99.99,,,-99.99,,2013-08-11 11:06:00,
2013-08-11 07:15:00,71.0,69.0,30.08,WNW,282,0.0,-999.0,94,-99.99,,,-99.99,,2013-08-11 11:15:00,
2013-08-11 07:24:00,70.0,68.0,30.08,West,281,0.0,-999.0,94,-99.99,,,-99.99,,2013-08-11 11:24:00,
2013-08-11 07:36:00,70.0,68.0,30.08,West,281,0.0,-999.0,94,-99.99,,,-99.99,,2013-08-11 11:36:00,
2013-08-11 08:00:00,71.0,69.0,30.08,West,281,0.0,-999.0,94,-99.99,,,-99.99,,2013-08-11 12:00:00,
2013-08-11 08:06:00,71.0,69.0,30.08,SSW,209,0.0,-999.0,94,-99.99,,,-99.99,,2013-08-11 12:06:00,
2013-08-11 08:15:00,71.0,69.0,30.08,SSW,209,0.0,-999.0,94,-99.99,,,-99.99,,2013-08-11 12:15:00,
2013-08-11 08:36:00,73.0,70.0,30.08,South,182,0.0,-999.0,90,-99.99,,,-99.99,,2013-08-11 12:36:00,
2013-08-11 08:45:00,73.0,70.0,30.08,South,182,0.0,-999.0,90,-99.99,,,-99.99,,2013-08-11 12:45:00,
2013-08-11 08:56:00,74.0,70.0,30.08,SSW,202,0.0,-999.0,88,-99.99,,,-99.99,,2013-08-11 12:56:00,
2013-08-11 09:06:00,76.0,71.0,30.08,NW,321,1.0,-999.0,84,-99.99,,,-99.99,,2013-08-11 13:06:00,
2013-08-11 09:16:00,76.0,71.0,30.08,NW,321,1.0,-999.0,84,-99.99,,,-99.99,,2013-08-11 13:16:00,
2013-08-11 09:39:00,79.0,73.0,30.09,South,175,0.0,-999.0,81,-99.99,,,-99.99,,2013-08-11 13:39:00,
2013-08-11 09:45:00,79.0,73.0,30.09,South,175,0.0,-999.0,81,-99.99,,,-99.99,,2013-08-11 13:45:00,
2013-08-11 09:58:00,79.0,72.0,30.09,SSW,213,2.0,-999.0,80,-99.99,,,-99.99,,2013-08-11 13:58:00,
2013-08-11 10:04:00,80.0,72.0,30.09,SSW,209,0.0,-999.0,78,-99.99,,,-99.99,,2013-08-11 14:04:00,
2013-08-11 10:17:00,80.0,72.0,30.09,SSW,209,0.0,-999.0,78,-99.99,,,-99.99,,2013-08-11 14:17:00,
2013-08-11 10:24:00,82.0,73.0,30.09,SSW,198,1.0,-999.0,74,-99.99,,,-99.99,,2013-08-11 14:24:00,
2013-08-11 10:34:00,82.0,73.0,30.09,SW,232,1.0,-999.0,75,-99.99,,,-99.99,,2013-08-11 14:34:00,
2013-08-11 10:57:00,84.0,74.0,30.09,WSW,254,0.0,-999.0,72,-99.99,,,-99.99,,2013-08-11 14:57:00,
2013-08-11 11:07:00,84.0,73.0,30.09,SW,236,1.0,-999.0,70,-99.99,,,-99.99,,2013-08-11 15:07:00,
2013-08-11 11:24:00,85.0,74.0,30.09,South,182,2.0,-999.0,69,-99.99,,,-99.99,,2013-08-11 15:24:00,
2013-08-11 11:38:00,86.0,74.0,30.09,SW,225,1.0,-999.0,68,-99.99,,,-99.99,,2013-08-11 15:38:00,
2013-08-11 11:48:00,86.0,74.0,30.09,SW,225,1.0,-999.0,68,-99.99,,,-99.99,,2013-08-11 15:48:00,
2013-08-11 12:00:00,87.0,75.0,30.08,NW,310,1.0,-999.0,67,-99.99,,,-99.99,,2013-08-11 16:00:00,
2013-08-11 12:09:00,88.0,73.0,30.08,SSE,165,1.0,-999.0,62,-99.99,,,-99.99,,2013-08-11 16:09:00,
2013-08-11 12:15:00,88.0,73.0,30.08,SSE,165,1.0,-999.0,62,-99.99,,,-99.99,,2013-08-11 16:15:00,
2013-08-11 12:29:00,89.0,73.0,30.08,SW,218,1.0,-999.0,60,-99.99,,,-99.99,,2013-08-11 16:29:00,
2013-08-11 12:39:00,89.0,74.0,30.07,South,169,1.0,-999.0,61,-99.99,,,-99.99,,2013-08-11 16:39:00,
2013-08-11 12:46:00,89.0,74.0,30.07,South,169,1.0,-999.0,61,-99.99,,,-99.99,,2013-08-11 16:46:00,
2013-08-11 12:55:00,88.0,73.0,30.07,SSE,156,1.0,-999.0,61,-99.99,,,-99.99,,2013-08-11 16:55:00,
2013-08-11 13:08:00,89.0,73.0,30.07,South,179,1.0,-999.0,60,-99.99,,,-99.99,,2013-08-11 17:08:00,
2013-08-11 13:14:00,89.0,73.0,30.07,South,179,1.0,-999.0,60,-99.99,,,-99.99,,2013-08-11 17:14:00,
2013-08-11 13:25:00,90.0,74.0,30.07,NE,47,0.0,-999.0,59,-99.99,,,-99.99,,2013-08-11 17:25:00,
2013-08-11 13:45:00,90.0,73.0,30.06,West,281,2.0,-999.0,58,-99.99,,,-99.99,,2013-08-11 17:45:00,
2013-08-11 13:54:00,91.0,74.0,30.05,SSW,194,1.0,-999.0,58,-99.99,,,-99.99,,2013-08-11 17:54:00,
2013-08-11 14:06:00,91.0,74.0,30.05,SSW,194,1.0,-999.0,58,-99.99,,,-99.99,,2013-08-11 18:06:00,
2013-08-11 14:27:00,91.0,74.0,30.04,SSW,196,2.0,-999.0,57,-99.99,,,-99.99,,2013-08-11 18:27:00,
2013-08-11 14:47:00,91.0,73.0,30.04,NNW,340,2.0,-999.0,55,-99.99,,,-99.99,,2013-08-11 18:47:00,
2013-08-11 14:54:00,92.0,75.0,30.03,WSW,257,2.0,-999.0,58,-99.99,,,-99.99,,2013-08-11 18:54:00,
2013-08-11 15:09:00,92.0,75.0,30.03,WSW,257,2.0,-999.0,58,-99.99,,,-99.99,,2013-08-11 19:09:00,
2013-08-11 15:16:00,91.0,74.0,30.03,South,190,3.0,-999.0,57,-99.99,,,-99.99,,2013-08-11 19:16:00,
2013-08-11 15:26:00,92.0,74.0,30.03,SSW,196,2.0,-999.0,56,-99.99,,,-99.99,,2013-08-11 19:26:00,
2013-08-11 15:33:00,92.0,74.0,30.03,SSW,196,2.0,-999.0,56,-99.99,,,-99.99,,2013-08-11 19:33:00,
2013-08-11 15:50:00,92.0,74.0,30.03,WSW,248,4.0,-999.0,56,-99.99,,,-99.99,,2013-08-11 19:50:00,
2013-08-11 15:56:00,87.0,71.0,30.04,NNE,23,6.0,-999.0,60,-99.99,,,-99.99,,2013-08-11 19:56:00,
2013-08-11 16:19:00,80.0,73.0,30.05,West,279,6.0,-999.0,79,-99.99,,,-99.99,,2013-08-11 20:19:00,
2013-08-11 16:48:00,75.0,72.0,30.04,SSE,150,0.0,-999.0,90,-99.99,,,-99.99,,2013-08-11 20:48:00,
2013-08-11 17:07:00,74.0,71.0,30.04,WSW,244,0.0,-999.0,90,-99.99,,,-99.99,,2013-08-11 21:07:00,
2013-08-11 17:13:00,75.0,72.0,30.03,SW,232,0.0,-999.0,89,-99.99,,,-99.99,,2013-08-11 21:13:00,
2013-08-11 17:27:00,75.0,72.0,30.06,NW,309,3.0,-999.0,90,-99.99,,,-99.99,,2013-08-11 21:27:00,
2013-08-11 17:34:00,75.0,72.0,30.06,NW,309,3.0,-999.0,90,-99.99,,,-99.99,,2013-08-11 21:34:00,
2013-08-11 17:47:00,73.0,70.0,30.04,WSW,248,2.0,-999.0,91,-99.99,,,-99.99,,2013-08-11 21:47:00,
2013-08-11 17:54:00,73.0,71.0,30.03,SE,145,1.0,-999.0,92,-99.99,,,-99.99,,2013-08-11 21:54:00,
2013-08-11 18:04:00,73.0,71.0,30.03,SE,145,1.0,-999.0,92,-99.99,,,-99.99,,2013-08-11 22:04:00,
2013-08-11 18:16:00,73.0,71.0,30.03,SW,231,1.0,-999.0,93,-99.99,,,-99.99,,2013-08-11 22:16:00,
2013-08-11 18:25:00,74.0,72.0,30.03,WSW,241,0.0,-999.0,93,-99.99,,,-99.99,,2013-08-11 22:25:00,
2013-08-11 18:36:00,74.0,72.0,30.03,WSW,241,0.0,-999.0,93,-99.99,,,-99.99,,2013-08-11 22:36:00,
2013-08-11 18:55:00,76.0,72.0,30.02,WSW,244,0.0,-999.0,88,-99.99,,,-99.99,,2013-08-11 22:55:00,
2013-08-11 19:05:00,76.0,72.0,30.02,WSW,244,0.0,-999.0,88,-99.99,,,-99.99,,2013-08-11 23:05:00,
2013-08-11 19:17:00,76.0,72.0,30.02,South,191,0.0,-999.0,88,-99.99,,,-99.99,,2013-08-11 23:17:00,
2013-08-11 19:28:00,76.0,72.0,30.02,SW,233,0.0,-999.0,88,-99.99,,,-99.99,,2013-08-11 23:28:00,
2013-08-11 19:35:00,76.0,72.0,30.02,SW,233,0.0,-999.0,88,-99.99,,,-99.99,,2013-08-11 23:35:00,
2013-08-11 19:48:00,77.0,73.0,30.02,SW,234,0.0,-999.0,88,-99.99,,,-99.99,,2013-08-11 23:48:00,
2013-08-11 19:56:00,77.0,73.0,30.02,SW,235,0.0,-999.0,87,-99.99,,,-99.99,,2013-08-11 23:56:00,
2013-08-11 20:06:00,77.0,73.0,30.02,SW,235,0.0,-999.0,87,-99.99,,,-99.99,,2013-08-12 00:06:00,
2013-08-11 20:17:00,76.0,72.0,30.03,SW,234,0.0,-999.0,88,-99.99,,,-99.99,,2013-08-12 00:17:00,
2013-08-11 20:25:00,76.0,73.0,30.03,NW,323,0.0,-999.0,90,-99.99,,,-99.99,,2013-08-12 00:25:00,
2013-08-11 20:37:00,76.0,73.0,30.03,NW,323,0.0,-999.0,90,-99.99,,,-99.99,,2013-08-12 00:37:00,
2013-08-11 20:49:00,76.0,73.0,30.03,West,275,0.0,-999.0,89,-99.99,,,-99.99,,2013-08-12 00:49:00,
2013-08-11 21:07:00,76.0,73.0,30.03,West,277,0.0,-999.0,89,-99.99,,,-99.99,,2013-08-12 01:07:00,
2013-08-11 21:14:00,76.0,73.0,30.03,West,277,0.0,-999.0,90,-99.99,,,-99.99,,2013-08-12 01:14:00,
2013-08-11 21:25:00,76.0,73.0,30.02,West,272,0.0,-999.0,90,-99.99,,,-99.99,,2013-08-12 01:25:00,
2013-08-11 21:46:00,76.0,73.0,30.03,West,273,0.0,-999.0,90,-99.99,,,-99.99,,2013-08-12 01:46:00,
2013-08-11 21:55:00,76.0,73.0,30.02,West,272,0.0,-999.0,91,-99.99,,,-99.99,,2013-08-12 01:55:00,
2013-08-11 22:08:00,76.0,73.0,30.02,West,272,0.0,-999.0,91,-99.99,,,-99.99,,2013-08-12 02:08:00,
2013-08-11 22:24:00,75.0,72.0,30.05,West,272,0.0,-999.0,91,-99.99,,,-99.99,,2013-08-12 02:24:00,
2013-08-11 22:47:00,75.0,72.0,30.06,West,272,0.0,-999.0,91,-99.99,,,-99.99,,2013-08-12 02:47:00,
2013-08-11 22:55:00,75.0,72.0,30.06,West,272,0.0,-999.0,91,-99.99,,,-99.99,,2013-08-12 02:55:00,
2013-08-11 23:07:00,75.0,72.0,30.06,West,272,0.0,-999.0,91,-99.99,,,-99.99,,2013-08-12 03:07:00,
2013-08-11 23:15:00,75.0,72.0,30.06,South,178,0.0,-999.0,91,-99.99,,,-99.99,,2013-08-12 03:15:00,
2013-08-11 23:39:00,75.0,72.0,30.06,WNW,283,0.0,-999.0,91,-99.99,,,-99.99,,2013-08-12 03:39:00,
2013-08-11 23:46:00,75.0,72.0,30.06,West,277,0.0,-999.0,90,-99.99,,,-99.99,,2013-08-12 03:46:00,
2013-08-11 23:57:00,75.0,72.0,30.05,WNW,286,0.0,-999.0,90,-99.99,,,-99.99,,2013-08-12 03:57:00,